����28�N�x�@��C��������Ԃɂ�鑪�茋��,,,,,,,,,,,,
,,,,,,,,,,,,
�P�@����n�_,,,,,,,,,,,,
���C�s�V��i���C�s�V��1-1�j,,,,,,,,,,,,
,,,,,,,,,,,,
�Q�@���Ԓl�i�m��l�j������28�N10��6���`����28�N10��28��,,,,,,,,,,,,
,,,,,,,,,,,,
,�N,��,��,��,SO2,SPM,Ox,CO,NO,NO2,���x,���x
,,,,,ppm,mg/m3,ppm,ppm,ppm,ppm,��,%
H01,2016,10,6,1,***,0.019,0.033,***,***,***,24.9,61.2
H01,2016,10,6,2,0.001,0.029,0.033,0.2,***,***,23.9,66.3
H01,2016,10,6,3,0,0.029,0.031,0.2,0.001,0.006,23.3,72
H01,2016,10,6,4,0,0.019,0.028,0.1,0.002,0.008,23.3,71.8
H01,2016,10,6,5,0,0.018,0.026,0.1,0.002,0.007,22.9,75.9
H01,2016,10,6,6,0.001,0.031,0.022,0.2,0.004,0.013,22.7,77.6
H01,2016,10,6,7,0.001,0.029,0.015,0.2,0.02,0.02,23,76.1
H01,2016,10,6,8,0.001,0.018,0.017,0.2,0.023,0.017,25.1,65.2
H01,2016,10,6,9,0.001,0.019,0.023,0.2,0.013,0.01,26.4,57
H01,2016,10,6,10,0.001,0.019,0.027,0.2,0.011,0.013,27,50.7
H01,2016,10,6,11,0.001,0.028,0.031,0.2,0.012,0.011,27.8,48.1
H01,2016,10,6,12,0.001,0.033,0.035,0.2,0.011,0.012,27.8,46.6
H01,2016,10,6,13,0.001,0.036,0.04,0.2,0.006,0.015,27.8,45.8
H01,2016,10,6,14,0.001,0.04,0.043,0.3,0.009,0.01,28.1,42.2
H01,2016,10,6,15,0.001,0.035,0.04,0.2,0.008,0.015,27.6,43.3
H01,2016,10,6,16,0.001,0.03,0.042,0.2,0.006,0.011,26.5,45.8
H01,2016,10,6,17,0.001,0.034,0.039,0.2,0.004,0.012,25.5,49.5
H01,2016,10,6,18,0.001,0.036,0.035,0.2,0.003,0.012,24,52.3
H01,2016,10,6,19,0,0.026,0.036,0.2,0.002,0.008,23.2,55.5
H01,2016,10,6,20,0,0.034,0.038,0.2,0.001,0.006,22.7,57.2
H01,2016,10,6,21,0,0.012,0.038,0.3,0.001,0.005,22.3,57
H01,2016,10,6,22,0,0.02,0.038,0.2,0,0.005,21.8,57.3
H01,2016,10,6,23,0,0.023,0.036,0.3,0.002,0.006,21.3,58.9
H01,2016,10,6,24,0,0.026,0.035,0.2,0.001,0.005,20.8,60
H01,2016,10,7,1,0.001,0.014,0.032,0.3,0.001,0.008,20.1,61
H01,2016,10,7,2,0.001,0.015,0.028,0.3,0.001,0.01,19.5,62.4
H01,2016,10,7,3,0.01,0.032,0.021,0.3,0.002,0.015,19,64.7
H01,2016,10,7,4,0.003,0.033,0.022,0.3,0.002,0.014,18.9,63.3
H01,2016,10,7,5,0.001,0.025,0.02,0.3,0.004,0.016,18.6,62.9
H01,2016,10,7,6,0.001,0.021,0.013,0.3,0.012,0.025,18.6,62.2
H01,2016,10,7,7,0.002,0.022,0.009,0.4,0.034,0.032,19.1,60.4
H01,2016,10,7,8,0.001,0.022,0.011,0.4,0.039,0.024,21.4,51.8
H01,2016,10,7,9,0.001,0.031,0.015,0.3,0.02,0.023,21.6,49.5
H01,2016,10,7,10,0.001,0.03,0.017,0.3,0.014,0.022,23.1,48.4
H01,2016,10,7,11,0.001,0.029,0.016,0.4,0.026,0.032,24.6,44.4
H01,2016,10,7,12,0.002,0.031,0.017,0.4,0.039,0.037,25.9,42.8
H01,2016,10,7,13,0.002,0.046,0.029,0.4,0.019,0.033,27.6,41.8
H01,2016,10,7,14,0.01,0.038,0.025,0.9,0.032,0.054,26.7,42.8
H01,2016,10,7,15,0.014,0.049,0.019,0.9,0.041,0.058,26.6,46.7
H01,2016,10,7,16,0.003,0.044,0.037,0.3,0.011,0.029,25.1,54.1
H01,2016,10,7,17,0.002,0.03,0.043,0.3,0.003,0.019,24.7,61.8
H01,2016,10,7,18,0.001,0.035,0.04,0.3,0.002,0.018,24.2,62.5
H01,2016,10,7,19,0.001,0.031,0.036,0.3,0.002,0.017,23.8,62.7
H01,2016,10,7,20,0.001,0.05,0.032,0.3,0.001,0.016,23.5,64.6
H01,2016,10,7,21,0.001,0.033,0.025,0.3,0.004,0.021,23.1,67.4
H01,2016,10,7,22,0.001,0.038,0.032,0.3,0.001,0.015,23,60.9
H01,2016,10,7,23,0.001,0.032,0.028,0.3,0,0.017,23.1,61
H01,2016,10,7,24,0.001,0.026,0.033,0.2,0,0.01,23,62.9
H01,2016,10,8,1,0,0.026,0.033,0.2,0.002,0.007,23.3,64.7
H01,2016,10,8,2,0,0.036,0.032,0.2,0.008,0.008,23.3,65.4
H01,2016,10,8,3,0,0.037,0.032,0.2,0.007,0.01,23.4,66.5
H01,2016,10,8,4,0,0.03,0.036,0.2,0,0.004,23.4,66.8
H01,2016,10,8,5,0,0.032,0.035,0.2,0,0.005,22,75.2
H01,2016,10,8,6,0,0.029,0.034,0.2,0,0.004,21.5,85.1
H01,2016,10,8,7,0,0.037,0.027,0.2,0.001,0.01,21.4,88
H01,2016,10,8,8,0,0.055,0.021,0.3,0.005,0.016,22.5,86.3
H01,2016,10,8,9,0,0.046,0.026,0.2,0.007,0.012,23.9,79
H01,2016,10,8,10,0,0.031,0.029,0.2,0.002,0.008,24.9,74.5
H01,2016,10,8,11,0.001,0.053,0.008,0.5,0.034,0.034,25,77.6
H01,2016,10,8,12,0.001,0.055,0.014,0.5,0.026,0.029,25.1,70.2
H01,2016,10,8,13,0.002,0.047,0.019,0.5,0.014,0.027,25.8,67.8
H01,2016,10,8,14,0.004,0.053,0.019,0.6,0.015,0.029,26.3,69
H01,2016,10,8,15,0.003,0.056,0.018,0.6,0.013,0.032,26.5,68.1
H01,2016,10,8,16,0.003,0.063,0.022,0.5,0.007,0.03,26.8,69.2
H01,2016,10,8,17,0.002,0.043,0.028,0.3,0.004,0.016,25.9,72.2
H01,2016,10,8,18,0.002,0.063,0.011,0.5,0.007,0.029,25.1,77.5
H01,2016,10,8,19,0.002,0.046,0.006,0.5,0.007,0.031,24.7,78.1
H01,2016,10,8,20,0.002,0.061,0.006,0.5,0.003,0.029,24.8,81
H01,2016,10,8,21,0.001,0.052,0.023,0.2,0,0.011,25.2,83.6
H01,2016,10,8,22,0.001,0.039,0.018,0.2,0,0.012,25,84.8
H01,2016,10,8,23,0.001,0.037,0.016,0.2,0,0.013,24.7,85.9
H01,2016,10,8,24,0.001,0.052,0.014,0.2,0,0.011,24.5,87
H01,2016,10,9,1,0.001,0.044,0.011,0.2,0,0.01,24.2,88.4
H01,2016,10,9,2,0.001,0.051,0.007,0.2,0.001,0.011,24.2,89.8
H01,2016,10,9,3,0.001,0.031,0.006,0.1,0.001,0.01,23.8,89.8
H01,2016,10,9,4,0.001,0.034,0.007,0.1,0,0.007,23.5,91.2
H01,2016,10,9,5,0.001,0.029,0.005,0.1,0.001,0.009,23.7,91.8
H01,2016,10,9,6,0.001,0.009,0.035,0.1,0.001,0.004,20.2,89.4
H01,2016,10,9,7,0,0.028,0.033,0.1,0.001,0.008,20.3,90.7
H01,2016,10,9,8,0,0.023,0.021,0.2,0.003,0.017,20.6,91.6
H01,2016,10,9,9,0.001,0.021,0.021,0.2,0.003,0.019,20.7,91.7
H01,2016,10,9,10,0.001,0.025,0.036,0.2,0.001,0.007,22.2,73.6
H01,2016,10,9,11,0,0.023,0.041,0.2,0.001,0.004,22.5,63.1
H01,2016,10,9,12,0.001,0.024,0.041,0.3,0.001,0.004,22.8,58.1
H01,2016,10,9,13,0.001,0.032,0.041,0.3,0.001,0.004,23,54.8
H01,2016,10,9,14,0.002,0.031,0.041,0.3,0,0.004,23,58.7
H01,2016,10,9,15,0.001,0.027,0.04,0.3,0.001,0.004,23,51.9
H01,2016,10,9,16,0.001,0.021,0.04,0.3,0.001,0.003,22.3,53
H01,2016,10,9,17,0.001,0.022,0.04,0.2,0.001,0.004,22.4,49.1
H01,2016,10,9,18,0.001,0.033,0.039,0.3,0,0.004,21,51
H01,2016,10,9,19,0,0.033,0.036,0.3,0,0.004,19.8,54.5
H01,2016,10,9,20,0,0.006,0.034,0.2,0,0.004,19.1,57.1
H01,2016,10,9,21,0,0.021,0.033,0.3,0,0.003,18.6,57.8
H01,2016,10,9,22,0,0.025,0.032,0.3,0,0.004,18,60.4
H01,2016,10,9,23,0,0.023,0.032,0.3,0,0.004,17.8,58.1
H01,2016,10,9,24,0,0.016,0.032,0.3,0,0.004,17.1,62.1
H01,2016,10,10,1,0.001,0.027,0.028,0.3,0.001,0.006,16.7,64.3
H01,2016,10,10,2,0.001,0.027,0.029,0.3,0,0.007,16.7,62.5
H01,2016,10,10,3,0.001,0.023,0.028,0.3,0,0.009,16.4,62.3
H01,2016,10,10,4,0.002,0.025,0.027,0.3,0.001,0.01,16.4,62.8
H01,2016,10,10,5,0.006,0.017,0.023,0.3,0.001,0.014,16,61.6
H01,2016,10,10,6,0.002,0.026,0.023,0.3,0.002,0.015,15.8,61.8
H01,2016,10,10,7,0.002,0.025,0.018,0.4,0.011,0.021,17,57.3
H01,2016,10,10,8,0.002,0.018,0.018,0.4,0.01,0.022,17.7,54.1
H01,2016,10,10,9,0.002,0.025,0.022,0.4,0.009,0.016,18.9,50
H01,2016,10,10,10,0.001,0.015,0.027,0.3,0.006,0.013,20.4,46.3
H01,2016,10,10,11,0.002,0.028,0.026,0.3,0.01,0.014,21.4,46.3
H01,2016,10,10,12,0.002,0.033,0.03,0.3,0.009,0.013,22.9,44.1
H01,2016,10,10,13,0.002,0.026,0.039,0.2,0.004,0.011,23.6,41.3
H01,2016,10,10,14,0.002,0.033,0.042,0.2,0.004,0.009,24,42.7
H01,2016,10,10,15,0.001,0.03,0.04,0.3,0.007,0.016,24.6,42.5
H01,2016,10,10,16,0.003,0.028,0.032,0.4,0.009,0.025,24,48.7
H01,2016,10,10,17,0.004,0.034,0.025,0.6,0.011,0.032,22.9,49.6
H01,2016,10,10,18,0.002,0.032,0.028,0.3,0.003,0.014,21.9,53.4
H01,2016,10,10,19,0.001,0.037,0.027,0.3,0.002,0.012,21.3,59.1
H01,2016,10,10,20,0.002,0.03,0.027,0.3,0.001,0.012,19.8,58.6
H01,2016,10,10,21,0.003,0.033,0.026,0.3,0.001,0.011,19.8,60.7
H01,2016,10,10,22,0.001,0.023,0.024,0.2,0.003,0.013,19.2,61.4
H01,2016,10,10,23,0.001,0.026,0.019,0.3,0.004,0.014,19.1,62.8
H01,2016,10,10,24,0.001,0.026,0.02,0.3,0.003,0.015,19,62.9
H01,2016,10,11,1,0.001,0.041,0.02,0.3,0.003,0.015,19,61.3
H01,2016,10,11,2,0.001,0.023,0.019,0.2,0.003,0.016,18.6,62.7
H01,2016,10,11,3,0.001,0.02,0.017,0.2,0.002,0.015,18.3,65.3
H01,2016,10,11,4,0.002,0.019,0.013,0.3,0.006,0.021,18.2,65.4
H01,2016,10,11,5,0.002,0.027,0.009,0.3,0.008,0.023,17.7,68.2
H01,2016,10,11,6,0.002,0.026,0.008,0.3,0.011,0.024,17.6,67.6
H01,2016,10,11,7,0.002,0.025,0.008,0.3,0.014,0.026,17.9,64.6
H01,2016,10,11,8,0.001,0.036,0.013,0.3,0.014,0.021,19.9,56.7
H01,2016,10,11,9,0.001,0.022,0.011,0.3,0.017,0.018,20.7,53.2
H01,2016,10,11,10,0.001,0.02,0.01,0.3,0.041,0.022,21.5,52.4
H01,2016,10,11,11,0.001,0.034,0.012,0.3,0.037,0.031,21.7,51.9
H01,2016,10,11,12,0.002,0.017,0.014,0.3,0.042,0.023,22.1,51.2
H01,2016,10,11,13,0.003,0.039,0.016,0.3,0.024,0.022,22,49.3
H01,2016,10,11,14,0.003,0.031,0.018,0.3,0.02,0.03,22.5,50.5
H01,2016,10,11,15,0.002,0.024,0.015,0.3,0.034,0.04,22.8,50.4
H01,2016,10,11,16,0.002,0.025,0.014,0.3,0.03,0.037,22.1,53.1
H01,2016,10,11,17,0.001,0.033,0.014,0.3,0.023,0.034,21.6,56.6
H01,2016,10,11,18,0.001,0.023,0.01,0.4,0.021,0.032,21.2,53
H01,2016,10,11,19,0.005,0.025,0.006,0.6,0.016,0.033,21.2,56.2
H01,2016,10,11,20,0.002,0.029,0.01,0.3,0.004,0.027,20.6,60.8
H01,2016,10,11,21,0.002,0.027,0.007,0.3,0.004,0.029,20.3,59.4
H01,2016,10,11,22,0.002,0.045,0.01,0.4,0.006,0.023,20.1,56.8
H01,2016,10,11,23,0.001,0.044,0.008,0.5,0.008,0.026,18.8,59.5
H01,2016,10,11,24,0.002,0.019,0.009,0.4,0.006,0.025,18.7,57.8
H01,2016,10,12,1,0.001,0.029,0.009,0.3,0.005,0.022,17.7,64.1
H01,2016,10,12,2,0.001,0.037,0.004,0.4,0.008,0.026,17.6,68.4
H01,2016,10,12,3,0.001,0.034,0.008,0.3,0.006,0.022,17.1,65.3
H01,2016,10,12,4,0.001,0.026,0.004,0.3,0.01,0.019,16.8,73.5
H01,2016,10,12,5,0.001,0.019,0.001,0.3,0.015,0.018,17,72
H01,2016,10,12,6,0.001,0.027,0.002,0.4,0.017,0.023,17.1,65.5
H01,2016,10,12,7,0.001,0.029,0.004,0.4,0.02,0.025,17.8,60.2
H01,2016,10,12,8,0.001,0.021,0.009,0.3,0.018,0.019,18.3,52.1
H01,2016,10,12,9,0.001,0.021,0.012,0.4,0.019,0.021,19.2,46.3
H01,2016,10,12,10,0.001,0.029,0.013,0.4,0.035,0.024,21.2,36.7
H01,2016,10,12,11,0.001,0.033,0.019,0.4,0.024,0.031,23.2,33.5
H01,2016,10,12,12,0.001,0.039,0.026,0.3,0.019,0.021,23.5,29.9
H01,2016,10,12,13,0.001,0.03,0.038,0.3,0.009,0.016,24.2,31.4
H01,2016,10,12,14,0.001,0.033,0.041,0.3,0.013,0.019,24.8,35.5
H01,2016,10,12,15,0.001,0.034,0.039,0.3,0.012,0.022,24.2,37.9
H01,2016,10,12,16,0.001,0.034,0.038,0.3,0.008,0.017,23.4,39.2
H01,2016,10,12,17,0.001,0.039,0.036,0.3,0.007,0.017,22.4,44.1
H01,2016,10,12,18,0.001,0.026,0.034,0.3,0.006,0.014,21.4,52.1
H01,2016,10,12,19,0.001,0.027,0.03,0.3,0.004,0.014,20.7,56.5
H01,2016,10,12,20,0.001,0.027,0.031,0.3,0.003,0.013,20,56.5
H01,2016,10,12,21,0.001,0.024,0.034,0.3,0.001,0.01,19.2,58.6
H01,2016,10,12,22,0.001,0.026,0.035,0.3,0.002,0.009,19.1,56.6
H01,2016,10,12,23,0,0.021,0.037,0.3,0.001,0.007,18,58.5
H01,2016,10,12,24,0,0.034,0.031,0.3,0.002,0.011,17.1,62
H01,2016,10,13,1,***,0.034,0.028,***,***,***,17,62.3
H01,2016,10,13,2,0.002,0.022,0.029,0.3,***,***,16.2,61.3
H01,2016,10,13,3,0.002,0.02,0.023,0.3,0.002,0.016,15.8,61.3
H01,2016,10,13,4,0.002,0.038,0.023,0.3,0.002,0.015,15.6,60.3
H01,2016,10,13,5,0.001,0.034,0.018,0.4,0.004,0.02,15.1,62.7
H01,2016,10,13,6,0.001,0.029,0.008,0.4,0.012,0.028,15.2,64.7
H01,2016,10,13,7,0.001,0.028,0.007,0.4,0.023,0.033,16,59.8
H01,2016,10,13,8,0.001,0.025,0.013,0.4,0.013,0.027,16.6,55.1
H01,2016,10,13,9,0.001,0.025,0.013,0.4,0.014,0.028,17.2,52.8
H01,2016,10,13,10,0.001,0.027,0.015,0.4,0.021,0.026,18.8,45.8
H01,2016,10,13,11,0.001,0.032,0.02,0.4,0.021,0.023,20.1,42.9
H01,2016,10,13,12,0.001,0.034,0.027,0.4,0.014,0.02,20.3,37.2
H01,2016,10,13,13,0.001,0.021,0.037,0.3,0.01,0.015,21.9,31.7
H01,2016,10,13,14,0.001,0.016,0.036,0.3,0.012,0.024,22.7,28.2
H01,2016,10,13,15,0.001,0.03,0.032,0.3,0.023,0.024,22.4,30.8
H01,2016,10,13,16,0.001,0.023,0.035,0.2,0.011,0.023,21.5,36.4
H01,2016,10,13,17,0.001,0.03,0.029,0.2,0.011,0.025,21.4,37
H01,2016,10,13,18,0.002,0.03,0.014,0.3,0.021,0.036,20.3,46.2
H01,2016,10,13,19,0.001,0.028,0.016,0.4,0.013,0.027,19.7,52.8
H01,2016,10,13,20,0.001,0.012,0.024,0.3,0.006,0.019,19.5,49
H01,2016,10,13,21,0.003,0.032,0.027,0.3,0.001,0.018,18.4,50
H01,2016,10,13,22,0.002,0.031,0.029,0.3,0.001,0.014,18.1,51.8
H01,2016,10,13,23,0.001,0.018,0.026,0.2,0.002,0.016,17.6,53
H01,2016,10,13,24,0.001,0.031,0.023,0.3,0.002,0.016,17.1,56.5
H01,2016,10,14,1,0.001,0.021,0.023,0.2,0.003,0.015,17.1,55.8
H01,2016,10,14,2,0.001,0.028,0.021,0.2,0.001,0.016,16.7,58.7
H01,2016,10,14,3,0.001,0.017,0.016,0.3,0.004,0.017,16.1,60.7
H01,2016,10,14,4,0.001,0.018,0.014,0.3,0.007,0.02,16,61.1
H01,2016,10,14,5,0.001,0.032,0.009,0.3,0.006,0.023,15.9,58.9
H01,2016,10,14,6,0.001,0.02,0.009,0.3,0.007,0.022,16.1,52.3
H01,2016,10,14,7,0.001,0.028,0.007,0.3,0.016,0.025,16.4,46.3
H01,2016,10,14,8,0.001,0.024,0.011,0.3,0.015,0.025,17.1,41.9
H01,2016,10,14,9,0.001,0.024,0.015,0.4,0.011,0.023,18.7,35.1
H01,2016,10,14,10,0.001,0.018,0.017,0.4,0.013,0.02,19.8,37.2
H01,2016,10,14,11,0.002,0.02,0.016,0.4,0.016,0.025,20.4,31.1
H01,2016,10,14,12,0.002,0.04,0.012,0.4,0.049,0.038,20.9,31.2
H01,2016,10,14,13,0.002,0.025,0.015,0.4,0.035,0.034,21.4,33.6
H01,2016,10,14,14,0.003,0.034,0.016,0.4,0.045,0.034,21.9,34.6
H01,2016,10,14,15,0.019,0.052,0.009,1.5,0.06,0.055,21.6,33.7
H01,2016,10,14,16,0.019,0.049,0.007,1.1,0.043,0.053,21,33
H01,2016,10,14,17,0.013,0.034,0.003,0.8,0.056,0.054,20.2,33.9
H01,2016,10,14,18,0.009,0.036,0.007,0.6,0.032,0.05,18.3,35.5
H01,2016,10,14,19,0.003,0.043,0.011,0.5,0.006,0.041,17.9,56.1
H01,2016,10,14,20,0.002,0.03,0.006,0.4,0.009,0.044,17.1,65
H01,2016,10,14,21,0.002,0.035,0.002,0.5,0.014,0.048,16.5,72
H01,2016,10,14,22,0.002,0.052,0.001,0.8,0.026,0.045,15.8,72.7
H01,2016,10,14,23,0.001,0.044,0.001,0.7,0.008,0.035,15.3,78.7
H01,2016,10,14,24,0.001,0.046,0.004,0.5,0.004,0.027,14.6,79.6
H01,2016,10,15,1,0.001,0.048,0.005,0.5,0.006,0.023,14.3,83
H01,2016,10,15,2,0.002,0.067,0.001,0.7,0.034,0.033,14.9,77.8
H01,2016,10,15,3,0.002,0.052,0.001,0.6,0.03,0.032,14.2,78.3
H01,2016,10,15,4,0.002,0.04,0,0.5,0.02,0.027,14.3,79.5
H01,2016,10,15,5,0.003,0.054,0,0.4,0.024,0.024,14.3,80.8
H01,2016,10,15,6,0.003,0.057,0,0.4,0.04,0.024,13.9,82.1
H01,2016,10,15,7,0.002,0.041,0.001,0.4,0.037,0.024,14.4,77.3
H01,2016,10,15,8,0.003,0.034,0.003,0.5,0.04,0.023,16.7,64.7
H01,2016,10,15,9,0.003,0.039,0.008,0.4,0.025,0.022,18.9,55
H01,2016,10,15,10,0.002,0.039,0.011,0.4,0.026,0.025,20.2,49.8
H01,2016,10,15,11,0.002,0.055,0.017,0.5,0.026,0.029,21.6,45.1
H01,2016,10,15,12,0.002,0.028,0.038,0.3,0.007,0.02,23.1,38.3
H01,2016,10,15,13,0.007,0.037,0.039,0.6,0.011,0.031,24.2,37.3
H01,2016,10,15,14,0.016,0.065,0.027,1.4,0.025,0.051,24.2,40.8
H01,2016,10,15,15,0.013,0.078,0.03,1.2,0.022,0.051,23.4,45.3
H01,2016,10,15,16,0.008,0.074,0.032,1,0.018,0.046,22.8,45.9
H01,2016,10,15,17,0.009,0.068,0.03,0.9,0.01,0.046,21.5,51
H01,2016,10,15,18,0.004,0.049,0.033,0.5,0.002,0.036,20.3,56.9
H01,2016,10,15,19,0.003,0.029,0.043,0.4,0.001,0.019,19.2,61.6
H01,2016,10,15,20,0.002,0.045,0.035,0.5,0.001,0.019,18.6,68.3
H01,2016,10,15,21,0.001,0.061,0.015,0.6,0.001,0.03,17,74.9
H01,2016,10,15,22,0.001,0.037,0.023,0.5,0.001,0.021,17.1,76.1
H01,2016,10,15,23,0.001,0.029,0.026,0.4,0,0.011,17,74.7
H01,2016,10,15,24,0,0.02,0.026,0.4,0,0.009,15.8,76.3
H01,2016,10,16,1,0.001,0.022,0.02,0.4,0,0.011,15.3,79.9
H01,2016,10,16,2,0.001,0.03,0.011,0.5,0.001,0.016,14.9,82.9
H01,2016,10,16,3,0.001,0.035,0.011,0.6,0.002,0.018,16.4,76.7
H01,2016,10,16,4,0.002,0.049,0.005,0.6,0.002,0.024,15.8,75.7
H01,2016,10,16,5,0.003,0.053,0.005,0.5,0.003,0.023,15,75.7
H01,2016,10,16,6,0.003,0.054,0.004,0.5,0.004,0.024,14.9,78.5
H01,2016,10,16,7,0.002,0.041,0.007,0.5,0.007,0.022,15.8,74.6
H01,2016,10,16,8,0.003,0.033,0.013,0.6,0.008,0.017,17.9,60.9
H01,2016,10,16,9,0.004,0.044,0.017,0.6,0.01,0.018,19.8,54.6
H01,2016,10,16,10,0.006,0.044,0.021,0.6,0.011,0.02,21,47
H01,2016,10,16,11,0.005,0.057,0.029,0.5,0.008,0.019,23.1,41.9
H01,2016,10,16,12,0.005,0.036,0.042,0.6,0.005,0.017,25.2,40.4
H01,2016,10,16,13,0.003,0.035,0.051,0.5,0.002,0.009,26.6,40.8
H01,2016,10,16,14,0.001,0.036,0.053,0.3,0,0.004,25.8,42.1
H01,2016,10,16,15,0.001,0.028,0.052,0.3,0,0.004,25.3,44.6
H01,2016,10,16,16,0.001,0.031,0.05,0.2,0,0.003,23.9,51.1
H01,2016,10,16,17,0.001,0.024,0.05,0.2,0,0.003,23,56.2
H01,2016,10,16,18,0.001,0.026,0.049,0.3,0,0.005,22.6,58.8
H01,2016,10,16,19,0.001,0.04,0.048,0.3,0,0.006,22.2,60.6
H01,2016,10,16,20,0.001,0.017,0.044,0.2,0,0.007,22.2,56.5
H01,2016,10,16,21,0.001,0.019,0.042,0.2,0,0.006,21.8,57.4
H01,2016,10,16,22,0.001,0.026,0.036,0.3,0,0.009,21.5,58.2
H01,2016,10,16,23,0,0.027,0.036,0.3,0,0.009,21.6,58.1
H01,2016,10,16,24,0,0.024,0.038,0.2,0,0.007,21.9,58.3
H01,2016,10,17,1,0,0.023,0.038,0.2,0,0.005,22.1,60.2
H01,2016,10,17,2,0,0.025,0.04,0.2,0,0.004,22.4,60.6
H01,2016,10,17,3,0,0.026,0.039,0.2,0,0.004,21,72.2
H01,2016,10,17,4,0.001,0.043,0.02,0.2,0.002,0.015,17.9,85.1
H01,2016,10,17,5,0,0.025,0.015,0.2,0.002,0.017,17.7,89.7
H01,2016,10,17,6,0,0.024,0.013,0.2,0.005,0.018,17.9,90.9
H01,2016,10,17,7,0.001,0.038,0.011,0.2,0.011,0.018,17.4,91.3
H01,2016,10,17,8,0.001,0.021,0.014,0.3,0.012,0.022,17.9,92.1
H01,2016,10,17,9,0,0.024,0.014,0.3,0.008,0.023,18,92.2
H01,2016,10,17,10,0,0.021,0.02,0.2,0.005,0.017,18.7,92.5
H01,2016,10,17,11,0.001,0.028,0.008,0.3,0.029,0.038,19.2,92.3
H01,2016,10,17,12,0.001,0.036,0.008,0.3,0.028,0.033,20.1,89
H01,2016,10,17,13,0.001,0.035,0.018,0.3,0.018,0.022,22.2,78
H01,2016,10,17,14,0.001,0.024,0.021,0.3,0.015,0.027,23.2,70.1
H01,2016,10,17,15,0.001,0.024,0.019,0.3,0.018,0.029,23.3,69.1
H01,2016,10,17,16,0.001,0.031,0.013,0.3,0.028,0.032,21.6,76.6
H01,2016,10,17,17,0.001,0.025,0.01,0.3,0.024,0.037,21.9,80.2
H01,2016,10,17,18,0.001,0.027,0.005,0.6,0.024,0.039,21.6,80
H01,2016,10,17,19,0.002,0.034,0.003,0.5,0.015,0.039,20.9,85.1
H01,2016,10,17,20,0.002,0.032,0.001,0.6,0.009,0.034,21.2,86.1
H01,2016,10,17,21,0.001,0.034,0.001,0.6,0.018,0.038,21.5,84.6
H01,2016,10,17,22,0.001,0.042,0.004,0.5,0.01,0.036,21.2,83.5
H01,2016,10,17,23,0.001,0.04,0.002,0.5,0.013,0.034,21,85.2
H01,2016,10,17,24,0.001,0.036,0.004,0.5,0.004,0.028,20.4,87.7
H01,2016,10,18,1,0.001,0.036,0.001,0.6,0.011,0.03,20.1,88
H01,2016,10,18,2,0.001,0.05,0.001,0.5,0.02,0.031,19.8,88.6
H01,2016,10,18,3,0.001,0.036,0,0.4,0.025,0.025,19.7,89.8
H01,2016,10,18,4,0.002,0.043,0,0.5,0.039,0.021,19.5,90.8
H01,2016,10,18,5,0.003,0.055,0,0.4,0.034,0.019,19.5,91.5
H01,2016,10,18,6,0.002,0.043,0.001,0.5,0.044,0.019,19.2,91.4
H01,2016,10,18,7,0.001,0.054,0.001,0.4,0.049,0.019,19.8,92.4
H01,2016,10,18,8,0.001,0.028,0.003,0.4,0.037,0.017,22.4,79.8
H01,2016,10,18,9,0.003,0.035,0.005,0.5,0.048,0.026,23,73.2
H01,2016,10,18,10,0.002,0.028,0.009,0.3,0.045,0.02,24.5,65.4
H01,2016,10,18,11,0.002,0.036,0.015,0.3,0.036,0.023,26.1,61.9
H01,2016,10,18,12,0.001,0.027,0.023,0.3,0.024,0.022,28.1,52.8
H01,2016,10,18,13,0.001,0.021,0.034,0.3,0.008,0.014,28.5,47.5
H01,2016,10,18,14,0.001,0.043,0.031,0.3,0.016,0.015,28.9,49
H01,2016,10,18,15,0.001,0.022,0.03,0.3,0.017,0.017,29,46.4
H01,2016,10,18,16,0.001,0.03,0.028,0.3,0.013,0.021,28.1,47.6
H01,2016,10,18,17,0.001,0.023,0.025,0.2,0.007,0.014,26.7,52.3
H01,2016,10,18,18,0.001,0.021,0.024,0.3,0.006,0.014,25.4,51.9
H01,2016,10,18,19,0.001,0.025,0.023,0.4,0.005,0.013,24.5,57.5
H01,2016,10,18,20,0.001,0.03,0.02,0.3,0.005,0.015,23.7,62.1
H01,2016,10,18,21,0.001,0.028,0.021,0.3,0.001,0.013,23.1,65.1
H01,2016,10,18,22,0.001,0.032,0.02,0.3,0.002,0.014,22.8,65.2
H01,2016,10,18,23,0.001,0.029,0.016,0.4,0.002,0.018,22.5,67.1
H01,2016,10,18,24,0.001,0.027,0.02,0.3,0.001,0.013,22.4,68.3
H01,2016,10,19,1,0.001,0.03,0.02,0.3,0.001,0.013,22.1,69.7
H01,2016,10,19,2,0.001,0.023,0.016,0.3,0.002,0.016,22,69.4
H01,2016,10,19,3,0.002,0.017,0.015,0.3,0.003,0.017,21.2,73.2
H01,2016,10,19,4,0.002,0.028,0.012,0.3,0.005,0.021,21,72.5
H01,2016,10,19,5,0.001,0.03,0.01,0.3,0.007,0.021,20.7,72.8
H01,2016,10,19,6,0.002,0.035,0.002,0.3,0.025,0.03,19.8,76.6
H01,2016,10,19,7,0.001,0.038,0.001,0.4,0.033,0.027,20.1,81.3
H01,2016,10,19,8,0.002,0.038,0.005,0.4,0.028,0.021,23.1,67.1
H01,2016,10,19,9,0.002,0.036,0.01,0.4,0.02,0.02,24,60.3
H01,2016,10,19,10,0.002,0.032,0.011,0.4,0.03,0.026,25.2,56.9
H01,2016,10,19,11,0.004,0.047,0.024,0.5,0.021,0.045,26.3,58.9
H01,2016,10,19,12,0.002,0.043,0.038,0.3,0.008,0.021,27.9,54.7
H01,2016,10,19,13,0.005,0.053,0.026,0.6,0.021,0.034,27.8,55.3
H01,2016,10,19,14,0.005,0.043,0.022,0.6,0.033,0.044,27.6,58.5
H01,2016,10,19,15,0.006,0.048,0.036,0.6,0.016,0.044,26.1,61.3
H01,2016,10,19,16,0.003,0.04,0.052,0.3,0.002,0.014,24.9,67.4
H01,2016,10,19,17,0.002,0.038,0.05,0.3,0,0.013,23.9,71.7
H01,2016,10,19,18,0.002,0.049,0.046,0.3,0.001,0.014,23.7,74.9
H01,2016,10,19,19,0.001,0.039,0.043,0.3,0,0.015,23,79.4
H01,2016,10,19,20,0.001,0.044,0.038,0.3,0,0.016,22.9,80.6
H01,2016,10,19,21,0.001,0.029,0.031,0.3,0,0.018,22.7,81.1
H01,2016,10,19,22,0.001,0.041,0.03,0.3,0,0.015,22.7,83
H01,2016,10,19,23,0.001,0.027,0.025,0.2,0.001,0.017,22.5,84.2
H01,2016,10,19,24,0.001,0.028,0.01,0.3,0.001,0.028,22.4,81.6
H01,2016,10,20,1,***,0.048,0.012,***,***,***,21.8,81.8
H01,2016,10,20,2,0.001,0.047,0.021,0.3,***,***,21.8,80.4
H01,2016,10,20,3,0,0.037,0.021,0.3,0,0.008,21.2,79.4
H01,2016,10,20,4,0,0.035,0.01,0.3,0.004,0.015,20.7,83
H01,2016,10,20,5,0.001,0.045,0.001,0.4,0.011,0.026,20.7,86.1
H01,2016,10,20,6,0.001,0.055,0.002,0.4,0.021,0.032,21.3,82.8
H01,2016,10,20,7,0.002,0.055,0.002,0.4,0.045,0.028,21.8,82.6
H01,2016,10,20,8,0.002,0.064,0.006,0.5,0.048,0.026,23.3,75.9
H01,2016,10,20,9,0.002,0.042,0.016,0.4,0.026,0.022,24.8,59.6
H01,2016,10,20,10,0.001,0.032,0.025,0.3,0.019,0.019,25.7,48.3
H01,2016,10,20,11,0.001,0.041,0.032,0.3,0.014,0.019,26.5,43.3
H01,2016,10,20,12,0.001,0.031,0.033,0.2,0.014,0.016,27.3,38.4
H01,2016,10,20,13,0,0.028,0.038,0.2,0.007,0.01,27.6,36.3
H01,2016,10,20,14,0.001,0.026,0.036,0.2,0.012,0.013,28.1,33.4
H01,2016,10,20,15,0.001,0.042,0.038,0.2,0.01,0.013,26.9,44
H01,2016,10,20,16,0.001,0.044,0.036,0.2,0.009,0.015,25.4,48.1
H01,2016,10,20,17,0.001,0.039,0.038,0.2,0.004,0.011,24.6,47.9
H01,2016,10,20,18,0.001,0.032,0.038,0.3,0.006,0.014,23.7,48.7
H01,2016,10,20,19,0.001,0.038,0.04,0.3,0.002,0.009,23.1,50.9
H01,2016,10,20,20,0.001,0.032,0.04,0.3,0.001,0.008,22.4,53.5
H01,2016,10,20,21,0.001,0.025,0.041,0.3,0.001,0.007,21.6,55.2
H01,2016,10,20,22,0.001,0.042,0.04,0.3,0.001,0.008,21.1,57.1
H01,2016,10,20,23,0.002,0.04,0.037,0.3,0.001,0.01,20.6,57.8
H01,2016,10,20,24,0.002,0.043,0.036,0.3,0,0.009,20.1,58.9
H01,2016,10,21,1,0.003,0.035,0.033,0.3,0.001,0.012,19.5,60.4
H01,2016,10,21,2,0.002,0.047,0.028,0.3,0.001,0.015,19.1,61.3
H01,2016,10,21,3,0.003,0.048,0.026,0.3,0.001,0.016,18.9,59.8
H01,2016,10,21,4,0.003,0.036,0.028,0.3,0.001,0.015,18.4,58.4
H01,2016,10,21,5,0.006,0.037,0.026,0.3,0.002,0.017,18.2,54.9
H01,2016,10,21,6,0.002,0.032,0.023,0.3,0.004,0.021,17.9,55
H01,2016,10,21,7,0.001,0.043,0.016,0.4,0.012,0.029,17.8,53.5
H01,2016,10,21,8,0.001,0.039,0.013,0.4,0.017,0.034,18.9,48.8
H01,2016,10,21,9,0.001,0.043,0.022,0.4,0.009,0.025,19.5,42.7
H01,2016,10,21,10,0.001,0.039,0.027,0.4,0.008,0.022,20,38.2
H01,2016,10,21,11,0.001,0.038,0.027,0.4,0.019,0.022,21.9,35.3
H01,2016,10,21,12,0.001,0.028,0.026,0.4,0.023,0.031,21.9,32.3
H01,2016,10,21,13,0.001,0.039,0.032,0.4,0.011,0.024,23.1,29.7
H01,2016,10,21,14,0.001,0.036,0.03,0.4,0.02,0.03,23.9,23.7
H01,2016,10,21,15,0.001,0.036,0.028,0.3,0.027,0.027,23.6,25.2
H01,2016,10,21,16,0.001,0.042,0.025,0.3,0.017,0.03,23.1,29
H01,2016,10,21,17,0.001,0.03,0.022,0.3,0.018,0.037,22.4,30.3
H01,2016,10,21,18,0.003,0.034,0.014,0.5,0.025,0.047,21.9,35.2
H01,2016,10,21,19,0.004,0.027,0.006,0.5,0.022,0.046,21,44.7
H01,2016,10,21,20,0.001,0.033,0.014,0.5,0.007,0.031,20.1,48.7
H01,2016,10,21,21,0.001,0.038,0.01,0.4,0.004,0.033,19.5,55.3
H01,2016,10,21,22,0.002,0.02,0.014,0.4,0.002,0.027,19.1,56.2
H01,2016,10,21,23,0.001,0.029,0.016,0.3,0.003,0.023,18.5,59.9
H01,2016,10,21,24,0.001,0.023,0.019,0.3,0.002,0.018,18.1,61.3
H01,2016,10,22,1,0.001,0.032,0.015,0.3,0.002,0.019,18,62.9
H01,2016,10,22,2,0.001,0.036,0.009,0.3,0.001,0.019,17.2,67.1
H01,2016,10,22,3,0.001,0.045,0.009,0.3,0.004,0.017,16.8,69.1
H01,2016,10,22,4,0.001,0.039,0.006,0.3,0.005,0.02,17.1,70.8
H01,2016,10,22,5,0.001,0.028,0.006,0.2,0.007,0.021,17.2,67.3
H01,2016,10,22,6,0.003,0.035,0.004,0.3,0.009,0.022,16.8,68.6
H01,2016,10,22,7,0.002,0.027,0.002,0.3,0.026,0.024,17.1,70.2